Theta_e
308 307 314 314 309 311 311 316 321 321 320 326 323 322 320 322 322 322 320 321 321 321 321 322 320 321 321 320 321 322 320 323 325 322 319 319 320 321 319 319 319 320 321 317
306 308 314 313 309 310 313 318 324 319 314 326 325 320 320 324 321 322 322 322 322 323 324 324 324 323 318 317 320 323 320 323 325 323 320 319 320 320 318 318 319 320 328 316
306 311 313 310 310 311 316 320 326 325 319 317 320 320 321 321 321 322 322 323 324 324 324 324 325 324 319 316 318 312 316 322 323 325 320 320 321 320 317 317 319 317 319 315
304 311 313 309 310 311 315 322 323 323 324 318 320 320 320 320 323 321 322 323 324 324 326 325 325 323 318 318 316 320 321 323 320 317 317 317 317 319 318 318 318 318 315 315
302 309 312 309 311 311 317 321 323 320 322 318 318 317 321 319 322 323 323 325 324 324 326 323 326 324 320 321 320 322 318 322 319 320 317 316 317 317 317 318 318 318 317 317
305 311 309 309 311 312 318 319 315 321 315 318 319 318 319 319 324 321 321 324 324 325 323 321 322 319 319 318 322 322 321 321 319 319 314 315 320 318 317 316 317 318 318 317
308 311 308 310 311 313 318 321 318 323 322 319 317 317 318 322 323 325 320 322 324 319 317 317 318 318 318 317 316 317 318 318 316 322 314 329 315 313 313 316 316 316 315 315
310 310 308 310 311 313 320 319 320 322 322 319 317 317 318 322 321 323 322 320 317 317 318 323 322 323 324 319 314 314 314 316 317 327 317 314 311 311 312 314 314 315 315 314
308 308 310 310 311 312 319 320 315 322 323 320 317 318 321 324 325 323 318 314 313 313 319 324 328 327 322 320 320 313 311 313 319 316 332 333 315 312 313 314 316 312 315 316
308 309 310 310 313 313 320 317 315 321 326 318 320 320 321 322 323 325 318 316 317 314 323 334 330 325 315 319 319 320 321 318 325 320 327 318 313 310 313 316 314 315 315 316
309 310 310 312 313 313 320 318 316 323 324 319 320 318 320 320 323 327 319 320 319 319 328 330 324 328 318 317 315 319 321 323 325 317 326 326 310 314 318 316 316 315 315 316
310 310 312 313 313 313 320 319 316 318 323 322 318 317 317 319 320 322 319 324 321 322 325 322 320 321 314 321 323 313 319 319 320 318 319 313 312 315 315 314 315 315 315 314
313 313 314 314 312 313 318 318 317 319 322 320 322 321 317 316 317 316 323 319 319 318 317 320 321 323 319 323 322 318 315 313 317 315 314 314 313 312 312 312 313 313 313 313
315 315 314 314 313 314 317 318 315 317 320 318 322 315 316 314 317 317 316 317 313 313 316 321 316 326 314 320 317 318 316 313 315 315 314 314 313 313 312 313 313 314 314 313
318 316 315 314 313 314 316 315 313 315 317 321 322 315 313 314 314 314 314 315 317 318 320 319 325 314 316 311 313 317 313 315 318 318 314 314 314 313 313 313 314 314 314 314
316 314 314 314 314 315 315 321 314 313 313 324 325 313 314 314 315 316 316 316 317 318 321 317 313 309 316 318 320 314 312 312 312 314 314 314 314 313 311 312 307 306 305 305
315 315 316 317 315 314 316 317 314 311 310 321 320 321 312 310 314 312 316 316 317 319 315 311 314 315 315 313 322 310 307 307 308 309 312 315 310 309 304 303 302 301 300 299
315 315 314 313 314 315 316 309 310 309 311 317 318 316 319 311 315 313 309 314 316 313 311 309 312 310 313 319 307 305 304 305 310 305 306 307 303 303 303 302 300 298 296 294
311 311 311 311 312 317 315 310 311 309 314 318 310 322 320 309 308 308 310 311 313 310 315 314 315 312 313 304 302 302 301 302 304 303 303 303 303 300 299 297 296 295 295 294
309 309 313 315 310 308 308 311 316 314 311 310 307 308 313 311 311 310 312 310 312 315 314 309 315 305 300 299 299 299 300 302 304 304 300 299 298 297 296 296 296 296 296 296
309 312 312 309 307 310 310 311 313 313 311 308 307 310 311 307 313 311 307 312 310 316 314 315 313 306 300 299 298 298 299 299 298 298 297 296 297 297 297 297 297 296 295 295
309 310 307 306 308 311 310 309 308 311 311 306 310 308 308 306 306 310 307 312 309 317 309 313 313 301 299 298 298 298 297 298 298 297 297 296 296 296 296 295 294 292 291 290
307 307 305 311 307 313 318 313 312 311 304 302 304 306 305 306 306 307 310 314 314 307 312 312 305 300 298 297 298 297 296 296 295 294 294 293 293 292 292 292 291 290 292 291
305 309 308 310 311 305 306 308 307 299 300 302 305 304 309 304 306 307 314 304 305 312 313 309 301 299 298 296 297 296 295 292 293 294 293 292 291 291 290 289 289 289 290 290
302 304 304 303 299 299 298 297 298 297 297 300 303 304 307 306 307 305 306 308 310 309 309 302 299 297 297 297 296 295 294 291 294 294 291 290 290 291 291 290 288 287 286 286
299 300 302 299 301 300 299 298 298 297 297 298 300 304 308 306 307 309 310 309 309 305 302 298 297 296 296 296 294 295 295 294 293 292 292 290 289 289 289 287 285 284 284 284
300 300 296 297 299 299 298 297 297 295 299 303 305 308 305 303 306 306 305 306 304 301 299 297 296 296 296 296 296 292 292 292 292 290 289 288 286 285 285 284 283 282 283 282
Wind_Speed
34 37 45 39 36 32 30 12 9 12 22 9 6 12 7 4 6 5 6 4 5 11 10 7 8 9 1 4 3 5 2 1 4 6 3 2 2 5 7 4 4 1 2 3
35 39 44 41 40 40 20 9 5 5 7 10 8 6 7 4 6 8 8 7 3 3 7 4 5 5 3 2 5 6 6 4 4 5 4 5 7 8 5 4 1 6 3 2
33 42 45 45 43 42 24 9 8 5 6 4 15 13 14 9 3 4 3 4 3 6 4 1 6 7 3 2 2 2 3 3 6 7 1 1 6 11 11 10 4 4 9 9
44 44 48 48 44 44 14 6 7 11 12 10 13 16 14 15 6 3 6 4 6 7 5 5 5 5 5 3 5 3 3 5 4 2 1 3 4 7 13 16 13 7 9 11
39 46 48 48 45 44 12 8 5 4 14 13 14 13 12 18 7 7 7 7 9 7 4 7 9 9 7 4 6 5 2 3 2 3 2 3 7 10 12 15 16 14 19 19
35 44 46 46 46 43 9 4 2 10 5 12 13 11 13 14 11 1 2 9 8 5 4 5 7 7 7 5 6 6 3 5 3 2 2 3 6 15 17 12 12 14 14 16
37 38 44 43 43 41 17 6 4 5 7 11 14 13 11 13 11 8 4 4 4 5 16 16 14 14 12 10 8 2 5 5 1 0 1 3 1 1 3 12 16 15 18 16
39 41 41 41 39 42 6 7 4 4 4 10 10 13 12 9 6 5 6 4 3 16 4 3 4 2 2 4 7 5 1 4 3 2 4 7 12 3 3 5 6 5 12 12
39 39 38 39 40 47 6 7 7 4 7 7 8 15 11 7 6 5 4 6 12 2 2 2 4 4 3 4 4 3 4 3 2 3 3 4 3 4 1 3 5 5 4 4
36 35 36 37 43 48 7 6 9 4 3 3 9 13 12 5 4 5 6 8 3 1 2 2 2 3 1 5 5 4 2 0 4 4 4 6 1 2 3 3 3 5 4 4
32 33 34 36 47 49 5 7 7 2 3 5 1 4 6 5 7 6 8 6 2 2 2 2 3 2 4 3 2 4 5 6 3 3 3 5 5 6 3 4 4 6 7 6
29 30 33 37 48 50 8 6 12 14 5 4 5 6 3 2 3 6 11 1 6 6 3 1 3 3 1 1 2 3 3 4 1 6 2 3 7 6 3 4 8 10 8 9
26 30 34 39 48 49 6 13 15 10 4 4 4 4 4 5 3 2 5 2 5 4 3 4 2 3 4 4 4 3 4 4 3 2 2 7 8 10 11 10 11 12 12 12
27 32 36 41 47 46 10 8 12 11 3 4 3 3 4 9 2 1 1 9 9 7 2 3 3 3 3 3 0 3 2 7 4 5 11 8 8 5 5 8 9 11 11 9
29 33 37 41 45 39 14 11 8 7 0 3 4 4 8 10 6 10 11 15 8 3 3 2 2 3 4 2 0 3 4 1 3 4 8 5 8 9 13 10 11 11 10 9
31 35 37 39 41 32 13 3 6 5 7 3 4 2 4 9 12 15 12 7 4 2 3 2 3 2 2 4 4 4 5 6 7 5 13 11 11 5 11 9 10 10 10 10
35 38 37 34 37 27 6 3 5 9 8 3 4 3 3 6 4 4 4 6 3 3 3 3 2 2 3 3 3 6 8 10 7 9 11 2 11 5 9 11 14 19 21 21
30 30 27 24 24 20 10 9 6 8 4 3 4 2 2 7 3 2 3 2 2 5 3 2 2 2 1 3 6 8 10 12 6 11 8 6 7 10 11 14 16 16 15 16
27 25 23 13 8 4 3 3 11 13 6 3 3 5 3 2 2 2 2 2 3 0 1 2 3 2 2 3 5 7 8 7 7 6 9 11 13 13 14 15 14 13 9 9
12 8 7 3 3 3 3 5 3 5 5 5 3 1 3 0 1 2 2 2 2 2 2 2 1 2 4 2 2 2 4 8 7 6 9 9 11 11 12 10 10 10 8 6
7 4 3 3 5 2 3 3 4 2 3 3 2 2 3 2 2 2 2 2 1 3 3 2 2 3 3 2 4 5 9 12 13 16 14 15 13 10 9 6 5 5 6 5
8 13 8 4 4 3 6 3 2 3 2 1 1 2 3 2 1 2 1 2 1 2 3 2 3 3 7 7 8 10 13 15 15 16 14 12 9 7 7 6 5 6 6 7
5 5 5 4 4 6 2 4 2 2 1 1 1 3 2 2 3 3 2 3 2 2 2 1 2 7 6 8 10 10 11 10 9 9 7 6 7 7 7 7 7 8 8 8
4 4 4 3 3 3 2 2 2 1 1 2 2 2 1 1 3 1 2 1 1 3 4 3 4 8 8 9 7 9 7 5 5 6 7 7 7 7 9 10 10 11 10 10
4 4 4 4 2 3 2 1 2 2 1 1 2 2 2 2 3 2 3 3 3 2 1 3 5 9 8 7 7 5 4 2 3 5 6 7 7 7 9 11 11 12 13 14
4 5 3 2 2 2 2 2 2 2 1 1 2 2 2 2 2 3 2 2 1 2 3 4 7 8 8 9 6 5 4 4 6 7 7 9 11 10 8 8 12 14 13 14
3 3 2 2 3 3 2 2 2 3 0 2 1 2 2 2 2 2 1 1 2 4 5 4 9 10 10 9 7 6 8 8 9 10 10 8 7 6 9 12 14 14 13 14
Wind_Direction
231 225 212 203 196 186 168 176 198 156 150 183 201 206 199 164 184 175 207 204 157 179 176 172 187 191 273 155 176 191 130 150 177 198 114 306 274 218 205 237 184 219 321 285
232 221 209 197 190 175 163 176 151 155 189 188 188 176 180 199 186 188 186 174 170 172 168 174 178 169 87 179 200 182 173 199 174 168 176 192 225 197 195 120 122 211 191 253
223 214 205 194 187 183 179 167 167 149 198 236 184 183 188 184 194 164 163 138 133 142 154 81 167 156 146 146 178 53 191 193 243 240 54 187 197 197 198 203 202 210 238 272
226 203 200 189 188 184 192 197 183 167 181 197 193 188 178 187 170 202 187 145 200 168 155 162 167 160 148 154 154 151 232 235 212 223 154 224 246 219 204 215 231 225 268 258
218 199 197 187 187 179 211 171 162 177 160 169 182 181 194 193 163 183 178 180 159 169 176 202 186 169 188 178 173 184 164 201 187 235 219 278 267 248 236 233 246 253 263 271
222 195 192 186 185 178 189 145 119 170 171 178 183 187 181 192 155 84 40 148 141 149 89 63 63 80 82 116 168 163 161 155 160 241 351 280 284 245 231 229 231 241 254 261
202 198 191 186 189 179 182 171 149 145 158 193 189 178 182 178 181 144 112 137 120 112 122 107 85 82 80 81 68 58 139 131 91 167 218 224 338 179 269 246 255 248 259 271
190 193 188 188 189 185 211 171 172 122 123 185 193 185 171 136 117 103 113 61 64 145 153 114 117 82 77 67 52 55 8 142 125 176 222 316 277 198 209 204 288 323 269 278
189 187 186 191 186 188 207 167 141 115 128 208 175 173 180 162 156 127 86 74 121 131 94 131 161 184 177 162 145 68 75 58 236 150 219 247 40 65 184 220 275 20 308 292
182 183 189 191 186 186 183 145 132 120 117 134 163 182 180 159 158 115 129 147 195 278 113 113 161 174 339 180 183 177 126 50 213 180 241 282 265 243 171 244 21 0 307 239
181 186 190 190 185 184 169 121 114 114 89 133 189 159 146 143 183 151 139 134 191 131 155 165 168 155 185 198 145 185 182 164 183 140 206 267 157 147 238 8 334 323 315 269
185 189 192 189 185 183 162 105 107 92 74 81 82 76 48 30 148 129 173 60 150 166 121 148 115 139 154 171 212 189 225 224 230 215 239 103 196 288 317 323 298 300 294 303
186 190 189 186 183 184 165 122 121 85 98 110 160 114 48 57 48 148 141 198 148 161 25 140 121 137 163 164 220 178 219 179 229 244 197 250 254 264 275 281 279 291 290 282
184 184 181 179 179 182 165 125 128 92 82 123 112 15 44 347 37 120 114 127 102 112 119 109 134 127 222 185 65 227 34 163 202 251 279 277 261 278 307 310 307 297 299 293
170 171 171 173 175 179 179 107 113 145 323 131 119 116 25 24 77 90 108 131 123 132 112 107 127 116 142 71 215 244 191 284 214 265 11 324 308 337 328 312 326 335 326 319
151 157 159 163 168 174 149 55 359 190 170 135 129 74 33 46 79 80 71 67 74 89 101 107 104 77 185 149 194 82 29 359 354 304 319 304 307 355 7 18 20 35 45 50
141 143 146 149 158 155 94 118 160 173 176 117 105 110 43 358 40 48 39 39 68 50 101 74 115 122 202 158 197 21 354 336 337 7 336 110 34 23 46 67 74 74 72 70
118 127 129 123 126 99 65 56 111 148 148 74 113 85 135 4 54 79 356 56 57 35 98 105 106 105 79 186 38 3 358 340 70 14 27 59 75 73 70 74 82 81 79 80
110 111 111 100 61 72 119 94 73 69 53 106 84 135 151 29 64 55 71 19 76 28 108 115 159 145 177 50 5 9 357 352 327 56 67 77 80 83 86 89 87 85 84 92
84 88 48 69 34 80 47 34 31 26 20 33 83 56 108 19 143 82 103 24 116 150 98 122 105 79 92 54 65 22 12 4 145 105 88 85 83 85 87 92 108 119 141 146
40 47 58 101 54 75 39 72 51 0 50 34 69 65 119 13 123 115 354 121 115 164 142 212 154 144 128 122 103 92 78 77 79 92 104 112 117 123 121 130 108 49 17 354
98 114 104 71 32 59 76 52 30 38 94 66 76 69 68 84 6 108 150 102 155 160 125 193 191 108 124 126 119 108 109 108 106 104 104 98 82 65 51 38 15 3 344 340
65 55 52 21 335 51 90 150 106 118 101 41 115 79 56 135 66 77 120 148 131 150 184 219 60 130 136 140 135 119 101 90 89 88 81 73 63 51 42 35 26 14 10 6
54 41 64 20 64 58 39 37 69 79 81 83 76 83 71 65 72 13 118 75 136 204 210 187 146 153 146 142 123 136 117 85 71 70 67 60 55 59 61 49 40 31 20 5
60 26 56 59 81 48 27 40 83 32 56 47 89 72 41 44 99 39 124 164 213 239 183 121 135 144 143 149 163 150 135 110 82 86 85 76 71 70 68 51 39 26 20 7
46 44 74 62 87 53 29 30 69 4 35 37 40 91 93 79 77 176 180 198 206 135 105 121 129 136 149 162 148 140 125 129 114 95 88 76 63 55 49 42 25 18 14 5
53 49 22 20 54 57 48 31 22 322 45 76 117 98 70 122 124 144 182 110 95 126 120 132 152 155 158 155 148 123 121 114 103 91 77 69 60 53 40 25 9 2 358 353